Weather History for Lancaster, OH

Change the Weather History Date:

Saturday, December 1, 2012

  Actual Average Record
Temperature  
Mean Temperature 46 °F -  
Max Temperature 61 °F 43 °F 67 °F (1991)
Min Temperature 30 °F 27 °F 5 °F (1976)
Degree Days  
Heating Degree Days 20    
Moisture  
Dew Point 36 °F    
Average Humidity 73    
Maximum Humidity 89    
Minimum Humidity 50    
Precipitation  
Precipitation 0.00 in - - ()
Sea Level Pressure  
Sea Level Pressure 30.25 in    
Wind  
Wind Speed 4 mph (South)    
Max Wind Speed 13 mph    
Max Gust Speed -    
Visibility 9 miles    
Events      
Averages and records for this station are not official NWS values.
T = Trace of Precipitation, MM = Missing Value Source: NWS Daily Summary

Daily Weather History Graph

Daily Weather History Graph

Search for Another Location

Airport:

Trip Planner

Search our weather history database for the weather conditions in past years. The results will help you decide how hot, cold, wet, or windy it might be!

Date:

Astronomy

Dec. 01, 2012 Rise Set
Actual Time 7:33 AM EST 5:06 PM EST
Civil Twilight 7:03 AM EST 5:36 PM EST
Nautical Twilight 6:29 AM EST 6:09 PM EST
Astronomical Twilight 5:57 AM EST 6:42 PM EST
Moon 7:55 PM EST (12/1) 9:45 AM EST (12/1)
Length of Visible Light 10h 33m
Length of Day
9h 33m
Waning Gibbous, 92% of the Moon is Illuminated
Dec 1
Waning Gibbous
Dec 6
Last Quarter
Dec 13
New
Dec 20
First Quarter
Dec 28
Full

Hourly Weather History & Observations

Time (EST) Temp. Windchill Dew Point Humidity Pressure Visibility Wind Dir Wind Speed Gust Speed Precip Events Conditions
12:53 AM 34.0 °F 31.0 °F 30.0 °F 85% 30.24 in 8.0 mi South 3.5 mph - N/A   Clear
1:53 AM 30.9 °F 27.5 °F 28.0 °F 89% 30.25 in 7.0 mi SSW 3.5 mph - N/A   Clear
2:53 AM 34.0 °F - 30.0 °F 85% 30.26 in 7.0 mi Calm Calm - N/A   Clear
3:53 AM 33.1 °F - 30.0 °F 89% 30.26 in 7.0 mi Calm Calm - N/A   Clear
4:53 AM 32.0 °F - 28.9 °F 88% 30.27 in 7.0 mi Calm Calm - N/A   Clear
5:53 AM 30.9 °F 26.2 °F 28.0 °F 89% 30.29 in 7.0 mi South 4.6 mph - N/A   Scattered Clouds
6:53 AM 32.0 °F 28.7 °F 28.0 °F 85% 30.30 in 7.0 mi SSW 3.5 mph - N/A   Clear
7:53 AM 33.1 °F 28.7 °F 30.0 °F 89% 30.32 in 5.0 mi South 4.6 mph - N/A   Mostly Cloudy
8:53 AM 39.9 °F - 35.1 °F 83% 30.31 in 8.0 mi Calm Calm - N/A   Overcast
9:53 AM 45.0 °F 42.6 °F 37.0 °F 74% 30.31 in 10.0 mi SSE 4.6 mph - N/A   Overcast
10:53 AM 50.0 °F - 39.0 °F 66% 30.30 in 10.0 mi SSE 5.8 mph - N/A   Overcast
11:53 AM 55.9 °F - 39.9 °F 55% 30.28 in 10.0 mi South 8.1 mph - N/A   Mostly Cloudy
12:53 PM 59.0 °F - 41.0 °F 51% 30.26 in 10.0 mi SSW 6.9 mph - N/A   Mostly Cloudy
1:53 PM 61.0 °F - 42.1 °F 50% 30.24 in 10.0 mi South 12.7 mph - N/A   Mostly Cloudy
2:53 PM 60.1 °F - 42.1 °F 51% 30.23 in 10.0 mi South 10.4 mph - N/A   Mostly Cloudy
3:53 PM 60.1 °F - 42.1 °F 51% 30.22 in 10.0 mi South 9.2 mph - N/A   Clear
4:53 PM 55.9 °F - 42.1 °F 60% 30.22 in 10.0 mi South 6.9 mph - N/A   Clear
5:53 PM 48.9 °F - 39.9 °F 71% 30.23 in 10.0 mi Calm Calm - N/A   Clear
6:53 PM 50.0 °F - 41.0 °F 71% 30.23 in 9.0 mi SSE 5.8 mph - N/A   Clear
7:53 PM 48.0 °F - 39.9 °F 74% 30.23 in 9.0 mi SE 6.9 mph - N/A   Clear
8:53 PM 48.0 °F - 39.9 °F 74% 30.21 in 10.0 mi SE 6.9 mph - N/A   Clear
9:53 PM 46.0 °F 42.5 °F 39.0 °F 76% 30.20 in 9.0 mi SE 6.9 mph - N/A   Clear
10:53 PM 46.9 °F - 39.9 °F 77% 30.19 in 10.0 mi Calm Calm - N/A   Clear
11:53 PM 48.0 °F - 41.0 °F 77% 30.20 in 10.0 mi SSE 3.5 mph - N/A   Overcast